Date,TemperatureHighF,TemperatureAvgF,TemperatureLowF,DewpointHighF,DewpointAvgF,DewpointLowF,HumidityHigh,HumidityAvg,HumidityLow,PressureMaxIn,PressureMinIn,WindSpeedMaxMPH,WindSpeedAvgMPH,GustSpeedMaxMPH,PrecipitationSumIn
2013-2-1,30.2,18.5,6.3,14.9,7.3,-2.5,76,62,50,30.50,30.15,9,3,9,0.00
2013-2-2,49.8,36.6,23.9,34.6,23.7,9.8,71,60,49,30.24,30.12,10,3,10,0.07
2013-2-3,51.8,40.5,27.3,29.4,21.7,15.6,75,50,27,30.30,29.83,11,4,11,0.00
2013-2-4,47.1,36.6,24.3,31.3,23.3,16.8,83,60,40,30.00,29.80,15,4,15,0.00
2013-2-5,59.7,38.0,22.1,39.0,23.8,16.9,84,61,28,30.12,29.91,9,2,9,0.00
2013-2-6,64.2,45.7,25.0,43.3,31.3,19.4,83,60,35,30.12,29.85,13,4,13,0.00
2013-2-7,52.2,45.8,32.4,45.6,37.0,25.1,92,72,54,30.24,29.88,14,5,14,0.48
2013-2-8,47.1,35.2,29.3,30.7,26.1,22.4,81,70,47,30.36,30.21,10,4,10,0.00
2013-2-9,53.2,39.9,29.7,37.8,30.8,25.7,85,71,49,30.21,29.74,13,6,13,0.00
2013-2-10,49.1,43.9,37.2,43.5,31.8,20.6,92,64,43,29.94,29.47,17,6,17,0.08
2013-2-11,46.4,35.9,25.3,24.4,20.1,12.4,71,54,33,30.21,29.94,10,3,10,0.00
2013-2-12,46.2,31.9,21.7,29.9,20.0,13.6,83,64,37,30.21,29.97,6,1,6,0.00
2013-2-13,56.3,35.6,22.5,32.1,20.3,10.7,81,58,26,29.97,29.83,14,2,14,0.00
2013-2-14,51.6,39.8,28.4,36.3,23.7,16.3,75,54,34,30.24,29.85,10,3,11,0.01
2013-2-15,39.9,30.4,18.7,29.0,16.0,5.4,92,58,32,30.42,30.24,12,4,12,0.00
2013-2-16,39.7,31.3,20.5,27.6,19.5,13.3,88,64,38,30.33,30.06,9,3,9,0.02
2013-2-17,61.3,43.5,24.1,33.4,24.0,9.8,74,48,31,30.06,29.65,13,4,13,0.00
2013-2-18,56.8,43.1,25.2,42.8,26.3,11.9,66,52,33,30.12,29.50,17,6,17,0.00
2013-2-19,36.9,27.8,22.3,17.8,8.0,-4.8,71,47,20,30.36,30.12,10,4,10,0.00
2013-2-20,28.8,21.9,16.5,10.5,5.4,1.5,55,49,40,30.39,30.18,8,4,8,0.00
2013-2-21,28.2,24.4,20.5,25.1,19.8,2.9,88,83,40,30.03,29.77,10,4,11,0.00
2013-2-22,31.1,23.0,13.6,24.4,15.9,7.1,87,74,60,30.09,29.83,14,4,14,0.00
2013-2-23,38.7,21.7,4.5,24.3,13.8,-0.9,95,72,55,30.09,29.94,6,2,6,0.06
2013-2-24,46.9,30.4,11.5,37.9,21.7,7.3,100,72,47,30.03,29.88,8,2,8,0.22
2013-2-25,37.6,34.6,31.3,30.7,26.5,22.5,88,72,64,29.97,29.77,13,6,13,0.09
2013-2-26,35.4,33.2,31.1,30.3,28.4,26.3,88,82,78,29.91,29.71,13,4,13,0.14
2013-2-27,42.1,34.1,28.8,29.7,25.2,20.1,88,71,50,30.12,29.88,13,5,13,0.20
2013-2-28,34.9,32.3,29.5,26.0,24.1,20.6,75,72,69,30.24,30.09,12,4,12,0.00